Location: Dob?e?
(49.9411°N, 15.1496°E)
Time: 19:43:40
(UTC+00:00)

NOAA 18 - Pass Details

Date: 27 October 2021
Orbit: 840 x 861 km, 99.0° (Epoch: 01 December)

Event Time Altitude Azimuth Distance (km) Brightness Sun altitude
Exits shadow 20:08:16 14° 348° (NNW) 2,207 7.7 -41.5°
Drops below altitude 10° 20:09:03 10° 348° (NNW) 2,511 8.1 -41.6°
Sets 20:11:26 0° 346° (NNW) 3,452 8.9 -41.9°
